SBARSBMO

Guest
Details From SBAR - Santa Maria
To SBMO - Zumbi Dos Palmares
Flight Number -
Tags Decoded
Created
Modified
Stats Distance 116 nm / 216 km
Max Altitude 0 ft / 0 m
Waypoints 2
Social Downloads 1
Likes 0
Share VATSIM

Download

Looking for another format? Having issues loading an existing format? Contact us
Advertisement - Login to hide

Notes

Decoded

Route

SBAR SBMO

ID Type Via Altitude Latitude Longitude Leg Dist Tot Dist Heading (true) Name
O SBAR APT - 0 ft / 0 m -10.98367˚ -37.08042˚ - 0 nm - -
O SBMO APT - 0 ft / 0 m -9.50863˚ -35.80332˚ 116 nm 116 nm 41° / 40° -

Altitude Profile

Advertisement - Login to hide

SBAR

Details ICAO SBAR (AJU)
Name SANTA MARIA
Region Brazil
Timezone America/Maceio (UTC-3.0)
Stats Elevation 23 ft / 7 m (AMSL)
Location -10.984000° -37.070333°
Runways 1
Magnetic Variation 23.050° W

METAR

SBAR 271400Z 11009KT 9999 VCSH BKN015 FEW017TCU 26/23 Q1017

Decode

TAF

TAF SBAR 271000Z 2712/2724 13012KT 8000SCT018 TX29/2715Z TN27/2723Z BECMG 2716/2717 15010KT RMK PEU

Decode

Departure Runways

ID Width Length Bearing (true) Bearing (mag) Surface Threshold Offset Overrun Length
11 148 ft / 45 m 7,228 ft / 2,203 m 91.93° 114.98° Asphalt 0 ft / 0 m 200 ft / 61 m
29 148 ft / 45 m 7,228 ft / 2,203 m 271.92° 294.97° Asphalt 0 ft / 0 m 200 ft / 61 m

SBMO

Details ICAO SBMO (MCZ)
Name Zumbi Dos Palmares
Region Brazil
Timezone America/Maceio (UTC-3.0)
Stats Elevation 387 ft / 118 m (AMSL)
Location -9.510808° -35.791677°
Runways 1
Magnetic Variation 22.592° W

METAR

SBMO 271400Z 11011KT 9999 SCT020 27/22 Q1017

Decode

TAF

TAF SBMO 271000Z 2712/2812 13009KT 8000 BKN016 TX27/2717Z TN21/2807Z PROB40 2712/2714 5000 SHRA BKN012 BECMG 2714/2716 SCT020 BECMG 2802/2803 32004KT RMK PEU

Decode

Destination Runways

ID Width Length Bearing (true) Bearing (mag) Surface Threshold Offset Overrun Length
12 148 ft / 45 m 8,528 ft / 2,599 m 100.73° 123.32° Asphalt 0 ft / 0 m 210 ft / 64 m
30 148 ft / 45 m 8,528 ft / 2,599 m 280.73° 303.32° Asphalt 0 ft / 0 m 210 ft / 64 m

Approach Navaids

Runway Type Ident Frequency Range Bearing (true) Bearing (mag) Slope Elevation
12 Localiser IMO 109.30 MHz 18 nm / 33 km 100.77° 123.36° - 387 ft / 118 m (AMSL)
12 Glidescope IMO 109.30 MHz 10 nm / 19 km 100.73° 123.32° 3.03° 387 ft / 118 m (AMSL)
12 DME IMO 109.30 MHz 18 nm / 33 km - - - 387 ft / 118 m (AMSL)

Popular Alternatives